Regional Weather Roundup
Issued by NWS Jackson, KY

Home | Current Version | Previous Version | Graphics & Text | Print | Product List | Glossary On
Versions: 1 2 3 4 5 6 7 8 9 10 11 12 13 14 15 16 17 18 19 20 21 22 23 24 25 26 27 28 29 30 31 32 33 34 35 36 37 38 39 40 41 42 43 44 45 46 47 48 49 50
592
ASUS43 KJKL 180610
RWRJKL

EAST KENTUCKY HOURLY WEATHER ROUNDUP
NATIONAL WEATHER SERVICE JACKSON KY
100 AM EST WED JAN 18 2017

NOTE: "FAIR" INDICATES FEW OR NO CLOUDS BELOW 12,000 FEET WITH
NO SIGNIFICANT WEATHER AND/OR OBSTRUCTIONS TO VISIBILITY.

* THESE REPORTS ARE NOT UNDER NWS QUALITY CONTROL AND MAY NOT
  REPORT WEATHER SUCH AS PRECIPITATION AND FOG.

KYZ079-080-083-085-087-088-110-112-115-119-120-180700
...EASTERN KENTUCKY...

CITY           SKY/WX    TMP DP  RH WIND       PRES   REMARKS
JACKSON        CLOUDY    50  44  80 W8        30.05S
6HR MIN TEMP:  50; 6HR MAX TEMP:  60;

LONDON         CLOUDY    51  45  79 W8        30.09R
6HR MIN TEMP:  51; 6HR MAX TEMP:  59; 6HR PCP: TRACE;

SOMERSET*      CLOUDY    48  43  81 W8        30.11F
MONTICELLO*    CLOUDY    50  46  86 W9        30.12F
6HR MIN TEMP:  50; 6HR MAX TEMP:  59; 6HR PCP: TRACE;

WILLIAMSBURG*  CLOUDY    50  48  93 NW7       30.09S
MIDDLESBORO*   PTCLDY    57  49  75 NW5       30.07S
6HR MIN TEMP:  56; 6HR MAX TEMP:  63; 6HR PCP:  0.18;

HARLAN APT*    CLOUDY    54  46  76 SW5       30.06S
PIKE CO APT*   MOCLDY    53  46  79 W6        30.04R
BIG SANDY APT* CLOUDY    53  47  82 NW9G17    30.04S
6HR MIN TEMP:  53; 6HR MAX TEMP:  61;

MOREHEAD APT*  CLOUDY    46  41  81 VRB6G13   30.08S
ASHLAND*       CLOUDY    50  43  76 W10       30.02S
$$

KYZ035-036-041-042-044-050-067-078-099-180700
...CENTRAL KENTUCKY...

CITY           SKY/WX    TMP DP  RH WIND       PRES   REMARKS
MT STERLING*   CLOUDY    45  41  87 NW12G17   30.09R
FLEMING/MASON* CLOUDY    44  41  89 W10       30.07S
DANVILLE*      CLOUDY    45  41  87 W10       30.11S
LEXINGTON      CLOUDY    43  39  86 W12G23    30.09R
6HR MIN TEMP:  43; 6HR MAX TEMP:  52; 6HR PCP: TRACE;

FRANKFORT      CLOUDY    44  37  76 W10G16    30.08S
6HR MIN TEMP:  44; 6HR MAX TEMP:  52;

LOUISVILLE     CLOUDY    45  39  79 SW8       30.11S
6HR MIN TEMP:  44; 6HR MAX TEMP:  50; 6HR PCP: TRACE;

LEBANON*       CLOUDY    45  39  81 W8G16     30.12S
GLASGOW*       CLOUDY    45  40  82 W8        30.14S
BOWLING GREEN  CLOUDY    47  40  76 W9        30.15F
6HR MIN TEMP:  47; 6HR MAX TEMP:  56;

$$

KYZ091>093-OHZ055-061-077-WVZ005-015-034-035-042-180700
...SOUTHERN OHIO/WEST VIRGINIA...

CITY           SKY/WX    TMP DP  RH WIND       PRES   REMARKS
COVINGTON      CLOUDY    44  40  85 SW8       30.04S
COLUMBUS       CLOUDY    47  40  76 W13       29.98F
DAYTON         CLOUDY    40  39  97 W13       30.01S FOG     WCI  32
WILMINGTON     CLOUDY    43  41  93 W13       30.01S
HUNTINGTON     CLOUDY    51  42  71 W7        30.03R
CHARLESTON     MOCLDY    55  46  71 W12G22    29.99R
PINEVILLE*     MOCLDY    54  50  87 MISG      30.04
BECKLEY        CLOUDY    53  46  77 W13G21    29.99R
BLUEFIELD      CLOUDY    52  49  89 W18G26    30.01R
LOGAN CO APT*    N/A     54  46  76 CALM      30.01S
$$

VAZ002-007-008-TNZ017-027-036-066-071-180700
...SOUTHWEST VIRGINIA/EAST TENNESSEE...

CITY           SKY/WX    TMP DP  RH WIND       PRES   REMARKS
WISE*          CLOUDY    55  48  76 W15G23    30.03F
JONESVILLE*    CLOUDY    57  52  82 W3        30.06S
ABINGDON*      RAIN      61  60  98 NW10      30.00S
BRISTOL        HVY RAIN  60  58  92 W9        30.01S FOG
MORRISTOWN*    MOCLDY    59  59 100 NW9       30.04R
SEVIERVILLE*   CLOUDY    64  55  72 W15       30.04R
KNOXVILLE      LGT RAIN  60  56  86 NW13      30.06R
LAFOLLETTE*    CLOUDY    59  46  63 CALM      30.10S
OAK RIDGE      CLOUDY    59  52  77 VRB6      30.08S
CROSSVILLE     CLOUDY    51  49  92 NW8       30.11F
NASHVILLE      CLOUDY    51  43  74 NW5       30.14F
$$

...KEY TO REMARKS...
VSB - VISIBILITY IN MILES
WCI - WIND CHILL INDEX
HX  - HEAT INDEX

$$




USA.gov is the U.S. government's official web portal to all federal, state and local government web resources and services.